Location: Chuathbaluk
(61.5726°N, 159.2454°W)
Time: 14:52:45
(UTC+00:00)

ZACube-1 - Pass Details

Date: 18 January 2021
Orbit: 583 x 666 km, 97.6° (Epoch: 01 March)

Event Time Altitude Azimuth Distance (km) Brightness Sun altitude
Rises 17:25:09 0° 15° (NNE) 3,020 ? -13.5°
Reaches altitude 10° 17:27:32 10° 7° (N) 2,106 ? -13.2°
Maximum altitude 17:31:41 34° 303° (WNW) 1,098 ? -12.8°
Drops below altitude 10° 17:35:49 10° 239° (WSW) 2,092 ? -12.3°
Sets 17:38:10 0° 230° (SW) 2,996 ? -12.0°
